SCP
-0 -0 0 0 0 0 0 0 0 0 0 0 0 0 0 0 0 0 0 0 0 0 0 -0 -0 -0 -0 -0 -0 -0 -0 -0 -0 0 0 0 0 0 -0 0 0 0 0
-0 -0 0 0 0 0 0 0 0 0 0 0 0 0 0 0 0 0 0 0 0 0 0 -0 -0 -0 -0 -0 0 -0 -0 -0 -0 -0 -0 0 0 0 0 -0 -0 0 0
-0 -0 -0 0 0 0 0 0 0 0 0 0 0 0 0 0 0 0 0 0 0 0 -0 -0 -0 -0 -0 -0 0 -0 -0 -0 -0 -0 0 0 0 0 0 -0 -0 0 0
-0 -0 -0 -0 -0 0 0 0 0 0 0 0 0 0 -0 0 0 0 0 0 0 0 -0 0 -0 0 -0 0 -0 -0 -0 0 -0 -0 -0 -0 0 0 0 0 0 0 0
-0 -0 -0 -0 0 0 -0 0 0 0 0 0 -0 0 -0 0 0 -0 0 0 0 0 0 0 -0 0 -0 -0 -0 -0 -0 -0 0 -0 0 -0 0 0 0 0 0 0 0
-0 -0 -0 -0 0 0 -0 -0 -0 -0 -0 -0 -0 -0 -0 0 0 0 0 0 0 0 0 -0 -0 0 -0 -0 -0 -0 -0 -0 -0 -0 0 0 -0 0 0 0 -0 0 0
-0 -0 -0 -0 0 0 0 0 -0 -0 -0 -0 -0 -0 -0 0 0 0 0 0 0 0 -0 -0 -0 -0 -0 -0 -0 -0 -0 -0 -0 0 -0 0 -0 -0 0 0 -0 0 0
0 -0 -0 -0 0 0 -0 -0 -0 -0 -0 -0 -0 -0 0 0 0 0 0 0 0 0 -0 -0 -0 -0 -0 -0 -0 -0 0 -0 -0 -0 -0 -0 -0 -0 -0 0 0 0 0
0 -0 -0 -0 -0 -0 -0 -0 -0 -0 -0 -0 -0 -0 -0 -0 0 0 0 0 0 -0 -0 -0 -0 -0 0 0 -0 0 0 -0 -0 -0 -0 -0 -0 -0 -0 -0 0 -0 -0
0 -0 -0 -0 -0 -0 -0 -0 -0 -0 -0 -0 -0 0 0 0 0 0 0 0 0 0 -0 -0 0 0 0 0 -0 -0 -0 0 -0 -0 -0 -0 -0 -0 -0 -0 -0 -0 -0
0 -0 0 0 0 0 -0 -0 -0 -0 -0 -0 -0 -0 0 0 0 0 0 0 0 0 0 -0 -0 -0 -0 0 -0 -0 -0 -0 -0 -0 -0 -0 -0 -0 -0 -0 -0 -0 -0
-0 0 0 0 -0 -0 0 -0 -0 -0 0 0 -0 0 0 0 0 0 0 0 0 0 0 0 -0 -0 -0 -0 -0 -0 -0 -0 -0 -0 -0 -0 -0 -0 -0 -0 -0 -0 -0
-0 0 0 0 0 0 0 -0 0 -0 -0 0 0 0 0 0 0 0 0 -0 -0 0 -0 -0 -0 -0 -0 -0 0 -0 -0 -0 0 0 -0 -1 -0 -0 -0 -0 -0 -0 -0
0 0 0 0 0 0 -0 -0 -0 -0 -0 -0 0 -0 0 0 0 0 0 0 -0 0 -0 0 -0 -0 0 0 -0 0 -0 0 -0 0 -0 -0 -0 -0 -0 -0 -0 -0 -0
0 0 -0 0 0 0 0 0 0 -0 -0 -0 0 -0 0 0 0 0 0 0 0 -0 -0 -0 0 0 0 -0 -0 -0 -0 0 0 0 0 -0 -0 -0 -0 -0 -0 -0 -0
0 0 0 0 0 -0 0 0 0 -0 -0 -0 0 -0 0 0 0 0 0 0 0 -0 0 0 -0 -0 -0 -0 -0 -0 0 0 0 0 0 0 -0 -0 -0 -0 -0 -0 0
0 0 0 0 0 0 0 0 -0 -0 -0 -0 -0 0 0 0 0 0 0 0 0 -0 -0 -0 -0 0 0 0 -0 -0 -0 -0 0 0 0 0 0 -0 -0 -0 -0 -0 -0
0 0 0 0 -0 -0 0 0 0 0 0 -0 0 -0 0 0 0 0 0 0 0 -0 -0 -0 -0 -0 0 -0 -0 0 0 0 0 0 0 0 0 0 -0 -0 -0 -0 -0
0 0 0 0 0 0 0 0 -0 0 -0 -0 0 -0 -0 -0 0 0 0 0 -0 -0 -0 -0 -0 -0 0 0 0 0 0 0 0 0 -0 -0 -0 0 0 -0 -0 -0 -0
0 0 0 -0 0 0 0 0 -0 0 0 0 0 -0 0 -0 0 0 0 -0 0 -0 0 0 -0 -0 0 0 -0 0 0 -0 -0 -0 -0 0 0 0 0 -0 -0 -0 -0
-0 -0 -0 -0 -0 -0 -0 -0 -0 -0 -0 -0 -0 0 0 0 0 0 0 -0 0 -0 0 0 0 -0 -0 0 0 -0 0 -0 -0 -0 -0 0 0 0 0 0 -0 0 -0
-0 -0 -0 -0 -0 -0 -0 -0 0 -0 -0 0 0 -0 0 0 0 0 0 0 0 0 0 -0 -0 0 -0 0 0 -0 -0 0 -0 -0 0 0 0 0 0 0 -0 -0 -0
-0 -0 -0 0 -0 -0 -0 -0 -0 0 0 -0 -0 0 0 0 0 0 0 -0 0 0 0 -0 -0 0 0 0 -0 0 0 0 -0 -0 0 0 0 -0 -0 -0 0 -0 -0
0 0 -0 -0 0 0 -0 0 0 -0 -0 0 -0 -0 -0 -0 0 -0 0 0 0 0 0 0 0 -0 0 -0 0 0 0 0 0 0 -0 -0 0 -0 -0 -0 -0 -0 -0
-0 -0 -0 0 0 0 -0 -0 -0 -0 -0 -0 0 0 0 0 0 0 -0 -0 0 0 0 0 0 0 0 0 0 0 0 0 0 0 -0 -0 0 0 0 0 -0 0 -0
-0 -0 -0 -0 0 -0 -0 -0 -0 -0 0 -0 0 -0 0 0 0 -0 0 0 0 0 0 0 0 0 0 0 0 0 0 0 0 0 0 0 -0 -0 0 0 0 0 0
Wind_Speed_500mb
22 19 22 22 20 17 17 16 18 15 10 7 8 10 13 12 13 13 12 10 8 9 10 11 16 21 21 26 30 30 31 32 31 31 33 37 40 41 41 37 35 35 41
28 20 22 23 19 17 16 15 15 15 10 8 8 10 14 11 9 9 10 10 10 12 13 16 22 25 28 28 29 31 31 31 31 32 32 37 40 42 40 36 35 37 38
28 20 21 23 21 18 17 16 14 16 14 12 13 12 12 12 9 11 14 14 16 14 17 20 24 28 29 32 30 31 30 37 43 45 45 26 26 31 32 36 29 33 33
24 20 18 21 22 20 17 15 16 16 15 11 11 14 13 12 15 15 18 18 17 15 20 25 29 30 30 30 31 30 32 42 39 36 29 23 20 29 30 28 28 28 30
28 28 15 20 23 21 16 14 16 16 16 14 17 17 14 13 11 14 13 12 15 16 19 24 27 30 28 28 29 29 31 39 35 23 29 24 20 26 27 26 25 26 26
27 27 18 21 23 19 16 14 17 18 17 17 17 19 16 13 11 8 8 11 12 15 17 19 22 26 26 26 25 26 31 37 33 21 18 33 23 24 29 33 25 26 23
28 20 23 23 22 20 19 17 17 17 18 16 14 13 12 12 11 7 5 7 12 13 16 17 20 21 22 23 21 23 32 36 32 21 21 23 19 22 23 22 22 23 23
26 25 19 23 23 20 19 20 19 17 17 14 12 2 7 4 9 8 10 7 11 13 13 15 19 18 19 21 24 22 30 28 19 19 13 29 8 20 22 21 22 21 21
27 24 20 20 22 21 20 18 18 16 16 13 6 2 12 10 15 10 9 12 13 11 11 16 18 19 20 21 20 17 25 30 24 16 17 11 16 18 19 20 19 19 19
28 25 23 18 17 16 9 15 15 14 13 12 6 7 7 8 17 19 7 12 15 12 13 16 19 20 19 17 15 14 25 30 23 12 16 20 10 20 21 20 20 21 19
27 27 26 25 22 13 12 9 12 10 10 3 4 9 10 5 7 24 17 12 16 15 13 15 18 19 17 14 13 11 25 14 18 13 21 19 20 19 21 20 20 19 18
29 27 27 18 21 17 13 5 4 3 2 8 6 7 12 12 6 13 21 17 17 18 16 14 15 15 14 13 9 12 17 22 14 15 22 17 21 21 19 19 19 18 17
30 28 27 24 20 17 12 7 12 12 7 7 4 7 9 6 5 8 15 19 17 17 19 14 14 14 13 16 19 12 8 18 14 15 19 19 19 20 21 16 19 19 17
30 28 25 25 22 21 11 10 5 4 7 14 10 12 7 8 8 6 9 17 27 22 17 26 14 10 13 24 12 16 12 15 11 19 17 18 19 20 22 20 17 19 18
29 28 27 24 26 20 20 10 8 8 17 11 2 14 16 14 9 9 10 14 23 31 19 22 18 17 15 13 14 15 15 15 13 10 14 14 17 19 22 26 22 20 19
27 28 27 23 20 17 13 12 9 5 13 6 10 12 12 14 8 6 7 11 21 36 33 21 22 17 15 13 17 12 16 16 19 18 20 18 17 19 25 28 28 25 21
29 27 26 23 19 17 13 10 5 3 7 12 4 8 12 10 7 5 4 8 14 25 41 34 25 24 17 16 17 12 14 20 20 20 18 18 22 21 24 30 33 32 32
29 29 22 19 22 13 15 9 9 9 11 3 8 5 13 8 11 9 3 5 14 16 24 30 29 27 21 17 17 19 15 12 18 17 17 18 23 22 19 24 33 37 40
25 25 23 19 18 12 12 12 8 8 9 6 8 10 13 6 6 11 12 2 11 11 8 14 19 21 25 21 19 21 17 18 18 19 19 19 19 18 23 28 24 30 41
28 26 24 19 19 15 12 12 10 11 10 9 6 9 12 5 7 8 10 6 7 18 14 18 18 20 20 16 17 19 17 11 21 22 24 26 21 27 29 36 32 32 33
30 28 23 21 18 15 11 12 9 11 9 9 7 8 9 5 6 5 5 13 3 10 15 16 11 16 17 15 17 18 18 21 21 23 26 21 33 36 35 40 49 30 36
30 27 23 21 17 16 13 13 12 9 9 10 7 8 6 4 6 4 2 6 8 6 16 18 21 16 13 18 17 17 16 19 28 29 31 29 36 42 43 34 33 31 40
31 27 25 23 21 20 20 16 15 12 12 9 11 12 5 4 4 7 4 3 4 6 8 13 17 22 15 19 22 16 9 12 21 24 21 24 29 26 29 17 28 37 40
33 28 25 23 22 18 17 20 21 16 16 13 7 7 5 6 5 8 10 6 6 3 15 10 17 21 22 21 23 21 22 14 11 11 15 19 17 18 18 29 23 27 36
33 31 26 23 24 24 25 25 22 21 15 10 11 12 4 9 9 5 14 11 8 3 12 9 15 18 21 20 23 19 23 23 21 21 22 24 12 19 20 23 24 27 31
35 31 27 25 22 22 25 25 25 23 23 15 13 13 9 6 12 14 10 14 12 14 12 7 14 20 20 21 19 25 24 21 19 21 26 25 29 29 32 27 25 27 28
Wind_Direction_500mb
142 154 139 134 131 125 121 121 127 133 132 129 105 100 95 100 111 126 120 125 111 113 102 111 117 117 107 111 109 109 108 106 110 114 112 107 106 107 105 103 96 119 118
140 148 141 133 141 133 119 116 122 124 124 128 117 114 105 91 104 127 141 141 121 103 99 115 120 123 119 116 113 112 113 112 107 106 111 117 114 114 112 115 139 120 125
137 145 138 129 132 139 124 117 116 115 115 117 103 98 103 106 108 118 118 114 110 102 106 117 127 130 123 115 119 119 117 104 97 98 90 101 121 122 126 132 137 120 125
135 124 139 126 126 133 128 126 119 122 118 103 107 100 101 106 112 105 109 120 118 113 111 118 132 132 127 122 121 123 113 116 101 103 124 107 116 130 132 134 131 127 126
134 134 168 129 128 130 125 127 119 122 111 99 89 92 90 93 104 108 110 124 124 123 123 123 131 132 131 131 130 126 116 115 99 84 111 117 122 126 125 120 120 124 123
133 135 145 128 127 123 117 123 121 118 114 108 110 117 121 106 105 116 134 119 132 127 124 128 132 138 139 137 133 127 120 115 102 116 130 132 140 127 130 133 141 138 142
139 130 143 127 122 117 107 116 127 123 118 123 145 135 136 133 141 150 141 147 136 130 131 137 137 141 141 142 135 127 125 116 111 136 145 153 171 147 134 143 142 143 140
143 140 145 134 125 113 104 112 117 125 124 141 153 181 324 179 168 180 146 146 151 136 138 144 145 149 150 148 140 135 137 122 113 129 135 147 142 148 150 147 145 144 145
151 143 146 141 137 131 131 123 121 130 132 142 128 276 314 246 200 189 177 151 146 154 146 146 143 146 147 153 150 139 138 132 133 162 154 210 226 173 161 160 158 156 154
155 146 151 146 140 139 127 118 125 136 143 153 212 263 327 312 229 187 183 173 164 178 168 162 153 148 150 164 175 155 147 143 143 160 161 200 203 174 162 165 168 167 169
163 159 157 152 155 160 159 141 131 123 146 170 45 71 41 13 186 199 208 196 173 176 172 170 172 170 157 150 162 167 157 152 144 167 188 234 211 179 166 165 170 167 165
170 166 166 158 161 163 163 239 82 134 309 82 94 48 43 46 117 175 198 199 187 186 179 171 169 168 177 179 158 143 165 190 171 183 215 235 197 188 180 184 178 176 178
174 171 173 174 171 174 172 150 177 210 275 358 336 353 346 341 78 140 196 206 196 192 186 187 165 154 184 191 214 205 214 166 207 201 202 235 210 197 192 197 192 188 190
170 175 176 182 171 187 169 167 185 285 230 306 273 354 317 295 297 278 214 200 196 191 196 184 199 204 189 198 199 207 197 217 195 206 251 248 229 209 199 206 216 201 200
169 174 174 184 180 187 160 188 209 244 225 219 183 284 332 302 281 269 217 204 197 180 209 189 198 213 208 204 210 215 212 199 201 208 243 258 252 229 214 207 213 211 213
167 169 174 182 187 166 166 190 218 211 332 344 6 325 291 297 282 265 229 214 201 182 192 203 196 210 209 208 227 224 214 222 225 219 243 252 264 251 229 218 216 216 219
167 166 172 179 172 168 182 215 217 248 256 303 342 330 331 306 306 294 222 207 194 192 188 190 200 200 208 216 227 239 224 217 233 226 231 255 263 261 255 237 226 222 224
167 162 169 178 177 182 203 231 232 245 239 196 285 307 326 330 356 0 345 165 176 188 193 202 208 199 201 218 227 241 231 247 227 240 237 232 260 263 251 251 244 235 232
178 175 177 182 189 173 202 226 228 244 261 295 266 323 322 356 336 12 2 209 167 164 175 188 203 198 205 202 228 229 237 236 232 242 245 256 237 261 265 259 245 252 245
179 178 178 185 192 199 208 229 226 244 244 246 246 279 328 15 334 38 2 348 159 166 188 202 194 209 194 191 229 234 263 247 234 245 244 246 237 247 233 252 254 257 259
188 184 184 195 198 203 218 216 232 234 225 230 243 259 305 326 316 342 10 349 339 161 200 188 199 204 204 213 219 237 246 240 241 242 248 244 245 245 263 242 235 244 261
190 193 199 207 216 217 222 218 225 223 226 222 218 261 288 256 275 301 16 335 321 195 206 186 192 200 204 219 217 246 251 242 232 245 252 253 252 266 265 255 249 235 257
195 202 209 216 221 226 218 223 225 218 234 216 231 269 200 269 268 272 290 260 279 2 229 197 205 196 211 217 235 246 230 239 251 246 221 234 259 258 259 269 236 243 240
203 207 215 217 215 227 221 211 212 210 219 209 254 199 273 284 258 265 255 243 260 254 299 229 211 209 219 216 220 233 243 242 262 292 239 232 232 254 259 249 248 245 243
197 201 205 214 218 209 229 199 227 204 224 237 234 259 284 284 311 246 260 245 234 176 248 256 243 235 241 229 244 236 246 249 245 257 270 261 258 260 234 233 228 232 239
191 196 197 202 216 206 215 209 206 213 206 217 224 243 263 272 292 300 233 234 237 244 251 238 253 258 243 250 243 234 261 261 258 266 260 264 266 272 248 238 213 221 226
Wind_Speed_850mb
22 19 22 22 20 17 17 16 18 15 10 7 8 10 13 12 13 13 12 10 8 9 10 11 16 21 21 26 30 30 31 32 31 31 33 37 40 41 41 37 35 35 41
28 20 22 23 19 17 16 15 15 15 10 8 8 10 14 11 9 9 10 10 10 12 13 16 22 25 28 28 29 31 31 31 31 32 32 37 40 42 40 36 35 37 38
28 20 21 23 21 18 17 16 14 16 14 12 13 12 12 12 9 11 14 14 16 14 17 20 24 28 29 32 30 31 30 37 43 45 45 26 26 31 32 36 29 33 33
24 20 18 21 22 20 17 15 16 16 15 11 11 14 13 12 15 15 18 18 17 15 20 25 29 30 30 30 31 30 32 42 39 36 29 23 20 29 30 28 28 28 30
28 28 15 20 23 21 16 14 16 16 16 14 17 17 14 13 11 14 13 12 15 16 19 24 27 30 28 28 29 29 31 39 35 23 29 24 20 26 27 26 25 26 26
27 27 18 21 23 19 16 14 17 18 17 17 17 19 16 13 11 8 8 11 12 15 17 19 22 26 26 26 25 26 31 37 33 21 18 33 23 24 29 33 25 26 23
28 20 23 23 22 20 19 17 17 17 18 16 14 13 12 12 11 7 5 7 12 13 16 17 20 21 22 23 21 23 32 36 32 21 21 23 19 22 23 22 22 23 23
26 25 19 23 23 20 19 20 19 17 17 14 12 2 7 4 9 8 10 7 11 13 13 15 19 18 19 21 24 22 30 28 19 19 13 29 8 20 22 21 22 21 21
27 24 20 20 22 21 20 18 18 16 16 13 6 2 12 10 15 10 9 12 13 11 11 16 18 19 20 21 20 17 25 30 24 16 17 11 16 18 19 20 19 19 19
28 25 23 18 17 16 9 15 15 14 13 12 6 7 7 8 17 19 7 12 15 12 13 16 19 20 19 17 15 14 25 30 23 12 16 20 10 20 21 20 20 21 19
27 27 26 25 22 13 12 9 12 10 10 3 4 9 10 5 7 24 17 12 16 15 13 15 18 19 17 14 13 11 25 14 18 13 21 19 20 19 21 20 20 19 18
29 27 27 18 21 17 13 5 4 3 2 8 6 7 12 12 6 13 21 17 17 18 16 14 15 15 14 13 9 12 17 22 14 15 22 17 21 21 19 19 19 18 17
30 28 27 24 20 17 12 7 12 12 7 7 4 7 9 6 5 8 15 19 17 17 19 14 14 14 13 16 19 12 8 18 14 15 19 19 19 20 21 16 19 19 17
30 28 25 25 22 21 11 10 5 4 7 14 10 12 7 8 8 6 9 17 27 22 17 26 14 10 13 24 12 16 12 15 11 19 17 18 19 20 22 20 17 19 18
29 28 27 24 26 20 20 10 8 8 17 11 2 14 16 14 9 9 10 14 23 31 19 22 18 17 15 13 14 15 15 15 13 10 14 14 17 19 22 26 22 20 19
27 28 27 23 20 17 13 12 9 5 13 6 10 12 12 14 8 6 7 11 21 36 33 21 22 17 15 13 17 12 16 16 19 18 20 18 17 19 25 28 28 25 21
29 27 26 23 19 17 13 10 5 3 7 12 4 8 12 10 7 5 4 8 14 25 41 34 25 24 17 16 17 12 14 20 20 20 18 18 22 21 24 30 33 32 32
29 29 22 19 22 13 15 9 9 9 11 3 8 5 13 8 11 9 3 5 14 16 24 30 29 27 21 17 17 19 15 12 18 17 17 18 23 22 19 24 33 37 40
25 25 23 19 18 12 12 12 8 8 9 6 8 10 13 6 6 11 12 2 11 11 8 14 19 21 25 21 19 21 17 18 18 19 19 19 19 18 23 28 24 30 41
28 26 24 19 19 15 12 12 10 11 10 9 6 9 12 5 7 8 10 6 7 18 14 18 18 20 20 16 17 19 17 11 21 22 24 26 21 27 29 36 32 32 33
30 28 23 21 18 15 11 12 9 11 9 9 7 8 9 5 6 5 5 13 3 10 15 16 11 16 17 15 17 18 18 21 21 23 26 21 33 36 35 40 49 30 36
30 27 23 21 17 16 13 13 12 9 9 10 7 8 6 4 6 4 2 6 8 6 16 18 21 16 13 18 17 17 16 19 28 29 31 29 36 42 43 34 33 31 40
31 27 25 23 21 20 20 16 15 12 12 9 11 12 5 4 4 7 4 3 4 6 8 13 17 22 15 19 22 16 9 12 21 24 21 24 29 26 29 17 28 37 40
33 28 25 23 22 18 17 20 21 16 16 13 7 7 5 6 5 8 10 6 6 3 15 10 17 21 22 21 23 21 22 14 11 11 15 19 17 18 18 29 23 27 36
33 31 26 23 24 24 25 25 22 21 15 10 11 12 4 9 9 5 14 11 8 3 12 9 15 18 21 20 23 19 23 23 21 21 22 24 12 19 20 23 24 27 31
35 31 27 25 22 22 25 25 25 23 23 15 13 13 9 6 12 14 10 14 12 14 12 7 14 20 20 21 19 25 24 21 19 21 26 25 29 29 32 27 25 27 28
Wind_Direction_850mb
142 154 139 134 131 125 121 121 127 133 132 129 105 100 95 100 111 126 120 125 111 113 102 111 117 117 107 111 109 109 108 106 110 114 112 107 106 107 105 103 96 119 118
140 148 141 133 141 133 119 116 122 124 124 128 117 114 105 91 104 127 141 141 121 103 99 115 120 123 119 116 113 112 113 112 107 106 111 117 114 114 112 115 139 120 125
137 145 138 129 132 139 124 117 116 115 115 117 103 98 103 106 108 118 118 114 110 102 106 117 127 130 123 115 119 119 117 104 97 98 90 101 121 122 126 132 137 120 125
135 124 139 126 126 133 128 126 119 122 118 103 107 100 101 106 112 105 109 120 118 113 111 118 132 132 127 122 121 123 113 116 101 103 124 107 116 130 132 134 131 127 126
134 134 168 129 128 130 125 127 119 122 111 99 89 92 90 93 104 108 110 124 124 123 123 123 131 132 131 131 130 126 116 115 99 84 111 117 122 126 125 120 120 124 123
133 135 145 128 127 123 117 123 121 118 114 108 110 117 121 106 105 116 134 119 132 127 124 128 132 138 139 137 133 127 120 115 102 116 130 132 140 127 130 133 141 138 142
139 130 143 127 122 117 107 116 127 123 118 123 145 135 136 133 141 150 141 147 136 130 131 137 137 141 141 142 135 127 125 116 111 136 145 153 171 147 134 143 142 143 140
143 140 145 134 125 113 104 112 117 125 124 141 153 181 324 179 168 180 146 146 151 136 138 144 145 149 150 148 140 135 137 122 113 129 135 147 142 148 150 147 145 144 145
151 143 146 141 137 131 131 123 121 130 132 142 128 276 314 246 200 189 177 151 146 154 146 146 143 146 147 153 150 139 138 132 133 162 154 210 226 173 161 160 158 156 154
155 146 151 146 140 139 127 118 125 136 143 153 212 263 327 312 229 187 183 173 164 178 168 162 153 148 150 164 175 155 147 143 143 160 161 200 203 174 162 165 168 167 169
163 159 157 152 155 160 159 141 131 123 146 170 45 71 41 13 186 199 208 196 173 176 172 170 172 170 157 150 162 167 157 152 144 167 188 234 211 179 166 165 170 167 165
170 166 166 158 161 163 163 239 82 134 309 82 94 48 43 46 117 175 198 199 187 186 179 171 169 168 177 179 158 143 165 190 171 183 215 235 197 188 180 184 178 176 178
174 171 173 174 171 174 172 150 177 210 275 358 336 353 346 341 78 140 196 206 196 192 186 187 165 154 184 191 214 205 214 166 207 201 202 235 210 197 192 197 192 188 190
170 175 176 182 171 187 169 167 185 285 230 306 273 354 317 295 297 278 214 200 196 191 196 184 199 204 189 198 199 207 197 217 195 206 251 248 229 209 199 206 216 201 200
169 174 174 184 180 187 160 188 209 244 225 219 183 284 332 302 281 269 217 204 197 180 209 189 198 213 208 204 210 215 212 199 201 208 243 258 252 229 214 207 213 211 213
167 169 174 182 187 166 166 190 218 211 332 344 6 325 291 297 282 265 229 214 201 182 192 203 196 210 209 208 227 224 214 222 225 219 243 252 264 251 229 218 216 216 219
167 166 172 179 172 168 182 215 217 248 256 303 342 330 331 306 306 294 222 207 194 192 188 190 200 200 208 216 227 239 224 217 233 226 231 255 263 261 255 237 226 222 224
167 162 169 178 177 182 203 231 232 245 239 196 285 307 326 330 356 0 345 165 176 188 193 202 208 199 201 218 227 241 231 247 227 240 237 232 260 263 251 251 244 235 232
178 175 177 182 189 173 202 226 228 244 261 295 266 323 322 356 336 12 2 209 167 164 175 188 203 198 205 202 228 229 237 236 232 242 245 256 237 261 265 259 245 252 245
179 178 178 185 192 199 208 229 226 244 244 246 246 279 328 15 334 38 2 348 159 166 188 202 194 209 194 191 229 234 263 247 234 245 244 246 237 247 233 252 254 257 259
188 184 184 195 198 203 218 216 232 234 225 230 243 259 305 326 316 342 10 349 339 161 200 188 199 204 204 213 219 237 246 240 241 242 248 244 245 245 263 242 235 244 261
190 193 199 207 216 217 222 218 225 223 226 222 218 261 288 256 275 301 16 335 321 195 206 186 192 200 204 219 217 246 251 242 232 245 252 253 252 266 265 255 249 235 257
195 202 209 216 221 226 218 223 225 218 234 216 231 269 200 269 268 272 290 260 279 2 229 197 205 196 211 217 235 246 230 239 251 246 221 234 259 258 259 269 236 243 240
203 207 215 217 215 227 221 211 212 210 219 209 254 199 273 284 258 265 255 243 260 254 299 229 211 209 219 216 220 233 243 242 262 292 239 232 232 254 259 249 248 245 243
197 201 205 214 218 209 229 199 227 204 224 237 234 259 284 284 311 246 260 245 234 176 248 256 243 235 241 229 244 236 246 249 245 257 270 261 258 260 234 233 228 232 239
191 196 197 202 216 206 215 209 206 213 206 217 224 243 263 272 292 300 233 234 237 244 251 238 253 258 243 250 243 234 261 261 258 266 260 264 266 272 248 238 213 221 226